Location: Callanans Corners
(42.5326°N, 73.8846°W)
Time: 16:27:08
(UTC+00:00)

Meteor 1-15 Rocket - Pass Details

Date: 06 October 2022
Orbit: 840 x 907 km, 81.2° (Epoch: 05 December)

Event Time Altitude Azimuth Distance (km) Brightness Sun altitude
Rises 23:04:20 0° 171° (S) 3,388 7.3 -7.5°
Reaches altitude 10° 23:06:48 10° 166° (SSE) 2,453 6.5 -7.9°
Maximum altitude 23:12:06 48° 94° (E) 1,090 4.4 -8.9°
Drops below altitude 10° 23:17:25 10° 21° (NNE) 2,467 6.4 -9.9°
Sets 23:19:55 0° 16° (NNE) 3,410 7.2 -10.3°
